Showing default

ESSA 3 (TOS-A), 2435

Orbit data source: Space-Track

ESSA 3 (TOS-A), 2435 is a payload satellite owned by ESSA (US) in SSO that was launched on Sun, 02 Oct 1966 UTC via a THOR DELTA E launch vehicle from the Air Force Western Test Range (AFWTR). Payload-class satellites include a variety of spacecraft equipped with specific instruments for various scientific and technological missions. These include communications satellites like Starlink; space stations such as the ISS; scientific satellites like the Hubble; Earth observation satellites from companies like Planet Labs, Umbra, and HawkEye 360; GPS; miniature CubeSats for education and research; and military/defense satellites.

Loading next visibility...
Identifier
2435, 1966-087A
Orbit
SSO
Country
Flag of USUS
Related business
Manufacturer
RCA/East Windsor
Mission
Non-operational Civil Weather
Bus & Motor
TIROS I, Unknown motor
Mass
148 kg wet, 148 kg dry
Launch date (UTC)
1966-10-02 (59 years ago)
Launch vehicle
THOR DELTA E
Launch site
Air Force Western Test Range (AFWTR)
Object type
Payload
Rocket body
Debris
Shape & HBR
Cyl, 0.6 m
Radar Cross Section
0.994 m², Medium (>0.1 m² and < 1m²)

Expand to show TLE details & history
Last TLE update: 6 hours ago

TLE from 6 hours ago
0 ESSA 3 (TOS-A)
1 02435U 66087A   25262.22692935 -.00000039  00000-0  14570-4 0  9990
2 02435 101.0817 176.1815 0063560 218.6489 297.8755 12.56875493704960
Epoch: 2025-09-19T05:26Z
TLE epoch observation values (Epoch: 2025-09-19T05:26:46.695Z)
Latitude
23.66668°
Longitude
-78.99027°
Altitude
1,415.485 km
Speed
7.165 km/s
True Right ascension
00h 04m 19s
True Declination
23° 33' 04"
Sunlit
Object was in full shadow at epoch
Visualization orbit readout
Latitude
Unknown
Longitude
Unknown
Altitude
Unknown
Speed
Unknown
Apparent Right ascension
Unknown
Apparent Declination
Unknown
Sunlit
N/A
Visualization observer readout
Local Sidereal Time
04:18:28
Azimuth
Unknown
Elevation
Unknown
Doppler factor
Unknown
Orbital elements
Apogee altitude
1,483.017 km
Perigee altitude
1,383.717 km
Semi-major axis
7,811.504 km
Eccentricity
0.00636
Inclination
101.0817°
RAAN
176.1815°
Arg. of periapsis
218.6489°
True anomaly
297.22928°
Mean anomaly
297.8755°
Eccentric anomaly
297.55263°
Mean motion
3.1437 °/min
Orbital period
114.51 mins
BSTAR
0.00001457
Loading maneuver chart data...
Computing Atmospheric mass density...
Loading historical data...
Loading historical data...
Loading historical data...
Loading historical data...
Loading historical data...
Loading historical data...
Loading historical data...
Other satellites on launch #87 in the year 1966 (1966-10-02 UTC)

Documentation

Showing up to 5 results
|